When you browse on this site, cookies collect data to enhance your experience and personalize the content and advertising you see.
Visit our Privacy Policy to learn more. By continuing to use the site, you agree to this use of cookies and data.
  • Em Portugal
  • Lista de países
  • Para 7 dias
  • Temperatura da água
  • Mapa do tempo
  • Widgets de tempo
  • user-avatar
    Iniciar Sessão

    Previsão horária em Giumri

    Hoje, 29 Maio, Sexta-feira

    Tempo Temperatura Precipitação Vento Pressão Humidade
    00:00 +15°C° 0.1 mm 1 m/s 635 mmHg 70%
    01:00 +15°C° 0.2 mm 1 m/s 635 mmHg 73%
    02:00 +14°C° 0.2 mm 1 m/s 634 mmHg 75%
    03:00 +14°C° 0.2 mm 1 m/s 634 mmHg 77%
    04:00 +15°C° 0 mm 1 m/s 634 mmHg 77%
    05:00 +15°C° 0 mm 1 m/s 634 mmHg 77%
    06:00 +16°C° 0 mm 1 m/s 634 mmHg 76%
    07:00 +18°C° 0 mm 2 m/s 634 mmHg 69%
    08:00 +20°C° 0 mm 2 m/s 634 mmHg 61%
    09:00 +24°C° 0 mm 2 m/s 635 mmHg 53%
    10:00 +25°C° 0.1 mm 3 m/s 635 mmHg 48%
    11:00 +26°C° 0.1 mm 5 m/s 635 mmHg 44%
    12:00 +27°C° 0.1 mm 6 m/s 635 mmHg 39%
    13:00 +26°C° 0.2 mm 5 m/s 634 mmHg 43%
    14:00 +26°C° 0.2 mm 4 m/s 634 mmHg 47%
    15:00 +25°C° 0.2 mm 4 m/s 633 mmHg 50%
    16:00 +24°C° 0.1 mm 3 m/s 633 mmHg 53%
    17:00 +22°C° 0.1 mm 3 m/s 633 mmHg 56%
    18:00 +22°C° 0.1 mm 3 m/s 634 mmHg 59%
    19:00 +19°C° 0 mm 2 m/s 633 mmHg 58%
    20:00 +17°C° 0 mm 2 m/s 633 mmHg 57%
    21:00 +15°C° 0 mm 1 m/s 633 mmHg 56%
    22:00 +14°C° 0 mm 1 m/s 632 mmHg 59%
    23:00 +14°C° 0 mm 1 m/s 632 mmHg 62%

    Amanhã, 30 Maio, Sábado

    Tempo Temperatura Precipitação Vento Pressão Humidade
    00:00 +13°C° 0 mm 1 m/s 632 mmHg 66%
    01:00 +12°C° 0 mm 1 m/s 632 mmHg 65%
    02:00 +12°C° 0 mm 1 m/s 632 mmHg 64%
    03:00 +11°C° 0 mm 1 m/s 632 mmHg 64%
    04:00 +11°C° 0 mm 1 m/s 632 mmHg 65%
    05:00 +11°C° 0 mm 1 m/s 633 mmHg 67%
    06:00 +11°C° 0 mm 1 m/s 633 mmHg 69%
    07:00 +13°C° 0 mm 1 m/s 633 mmHg 62%
    08:00 +15°C° 0 mm 1 m/s 634 mmHg 55%
    09:00 +18°C° 0 mm 1 m/s 634 mmHg 48%
    10:00 +19°C° 0 mm 1 m/s 635 mmHg 44%
    11:00 +19°C° 0 mm 2 m/s 635 mmHg 40%
    12:00 +20°C° 0 mm 2 m/s 635 mmHg 36%
    13:00 +21°C° 0 mm 2 m/s 635 mmHg 35%
    14:00 +23°C° 0 mm 2 m/s 635 mmHg 34%
    15:00 +23°C° 0 mm 2 m/s 634 mmHg 33%
    16:00 +23°C° 0 mm 2 m/s 634 mmHg 38%
    17:00 +22°C° 0 mm 1 m/s 634 mmHg 43%
    18:00 +22°C° 0 mm 1 m/s 634 mmHg 48%
    19:00 +19°C° 0 mm 1 m/s 634 mmHg 52%
    20:00 +16°C° 0 mm 1 m/s 634 mmHg 55%
    21:00 +13°C° 0 mm 1 m/s 633 mmHg 58%
    22:00 +13°C° 0 mm 1 m/s 633 mmHg 60%
    23:00 +12°C° 0 mm 1 m/s 634 mmHg 61%

    Depois de amanhã, 31 Maio, Domingo

    Tempo Temperatura Precipitação Vento Pressão Humidade
    00:00 +12°C° 0 mm 1 m/s 634 mmHg 62%
    01:00 +11°C° 0 mm 1 m/s 634 mmHg 63%
    02:00 +11°C° 0 mm 1 m/s 634 mmHg 64%
    03:00 +10°C° 0 mm 1 m/s 634 mmHg 64%
    04:00 +11°C° 0 mm 1 m/s 634 mmHg 65%
    05:00 +11°C° 0 mm 1 m/s 634 mmHg 66%
    06:00 +12°C° 0 mm 1 m/s 635 mmHg 68%
    07:00 +14°C° 0 mm 1 m/s 635 mmHg 62%
    08:00 +16°C° 0 mm 1 m/s 636 mmHg 56%
    09:00 +18°C° 0 mm 1 m/s 636 mmHg 50%
    10:00 +19°C° 0 mm 1 m/s 636 mmHg 46%
    11:00 +21°C° 0 mm 1 m/s 636 mmHg 41%
    12:00 +21°C° 0 mm 2 m/s 637 mmHg 36%
    13:00 +21°C° 0 mm 2 m/s 636 mmHg 36%
    14:00 +23°C° 0 mm 2 m/s 636 mmHg 35%
    15:00 +23°C° 0 mm 2 m/s 636 mmHg 35%
    16:00 +21°C° 0 mm 2 m/s 636 mmHg 41%
    17:00 +22°C° 0 mm 1 m/s 635 mmHg 48%
    18:00 +21°C° 0 mm 1 m/s 635 mmHg 54%
    19:00 +18°C° 0 mm 2 m/s 635 mmHg 62%
    20:00 +15°C° 0 mm 2 m/s 634 mmHg 70%
    21:00 +13°C° 0 mm 2 m/s 633 mmHg 78%
    22:00 +12°C° 0 mm 2 m/s 633 mmHg 78%
    23:00 +12°C° 0 mm 2 m/s 633 mmHg 78%

    1 Junho, Segunda-feira

    Tempo Temperatura Precipitação Vento Pressão Humidade
    00:00 +12°C° 0 mm 2 m/s 633 mmHg 78%
    01:00 +10°C° 0 mm 2 m/s 632 mmHg 78%
    02:00 +11°C° 0 mm 1 m/s 632 mmHg 77%
    03:00 +11°C° 0 mm 1 m/s 632 mmHg 77%
    04:00 +12°C° 0 mm 1 m/s 632 mmHg 77%
    05:00 +12°C° 0 mm 1 m/s 633 mmHg 76%
    06:00 +13°C° 0 mm 1 m/s 633 mmHg 76%
    07:00 +15°C° 0 mm 1 m/s 633 mmHg 68%
    08:00 +18°C° 0 mm 1 m/s 634 mmHg 60%
    09:00 +20°C° 0 mm 1 m/s 634 mmHg 52%
    10:00 +20°C° 0 mm 3 m/s 635 mmHg 47%
    11:00 +22°C° 0 mm 4 m/s 635 mmHg 43%
    12:00 +23°C° 0 mm 5 m/s 635 mmHg 38%
    13:00 +23°C° 0 mm 6 m/s 635 mmHg 38%
    14:00 +23°C° 0 mm 6 m/s 635 mmHg 38%
    15:00 +24°C° 0 mm 7 m/s 634 mmHg 37%
    16:00 +23°C° 0 mm 6 m/s 634 mmHg 43%
    17:00 +22°C° 0 mm 5 m/s 633 mmHg 48%
    18:00 +21°C° 0 mm 4 m/s 633 mmHg 54%
    19:00 +18°C° 0 mm 4 m/s 633 mmHg 52%
    20:00 +16°C° 0 mm 3 m/s 632 mmHg 51%
    21:00 +14°C° 0 mm 2 m/s 632 mmHg 50%
    22:00 +14°C° 0 mm 2 m/s 631 mmHg 51%
    23:00 +13°C° 0 mm 2 m/s 631 mmHg 52%

    2 Junho, Terça-feira

    Tempo Temperatura Precipitação Vento Pressão Humidade
    00:00 +12°C° 0 mm 1 m/s 631 mmHg 54%
    01:00 +12°C° 0 mm 1 m/s 631 mmHg 55%
    02:00 +12°C° 0 mm 1 m/s 630 mmHg 57%
    03:00 +11°C° 0 mm 1 m/s 630 mmHg 59%
    04:00 +12°C° 0 mm 1 m/s 630 mmHg 60%
    05:00 +13°C° 0 mm 1 m/s 630 mmHg 62%
    06:00 +13°C° 0 mm 1 m/s 630 mmHg 64%
    07:00 +15°C° 0 mm 2 m/s 631 mmHg 58%
    08:00 +17°C° 0 mm 3 m/s 631 mmHg 52%
    09:00 +19°C° 0 mm 4 m/s 632 mmHg 45%
    10:00 +20°C° 0 mm 5 m/s 632 mmHg 42%
    11:00 +21°C° 0 mm 7 m/s 632 mmHg 38%
    12:00 +22°C° 0 mm 8 m/s 633 mmHg 35%
    13:00 +22°C° 0 mm 8 m/s 632 mmHg 35%
    14:00 +22°C° 0 mm 7 m/s 632 mmHg 36%
    15:00 +22°C° 0 mm 7 m/s 632 mmHg 37%
    16:00 +21°C° 0 mm 6 m/s 632 mmHg 42%
    17:00 +21°C° 0 mm 5 m/s 632 mmHg 48%
    18:00 +20°C° 0 mm 4 m/s 632 mmHg 54%
    19:00 +17°C° 0 mm 3 m/s 632 mmHg 56%
    20:00 +15°C° 0 mm 2 m/s 632 mmHg 58%
    21:00 +13°C° 0 mm 1 m/s 632 mmHg 60%
    22:00 +12°C° 0 mm 1 m/s 632 mmHg 62%
    23:00 +12°C° 0 mm 1 m/s 632 mmHg 63%

    3 Junho, Quarta-feira

    Tempo Temperatura Precipitação Vento Pressão Humidade
    00:00 +11°C° 0 mm 1 m/s 632 mmHg 65%
    01:00 +11°C° 0 mm 1 m/s 632 mmHg 66%
    02:00 +11°C° 0 mm 1 m/s 632 mmHg 67%
    03:00 +10°C° 0 mm 1 m/s 631 mmHg 69%
    04:00 +11°C° 0 mm 1 m/s 632 mmHg 68%
    05:00 +12°C° 0 mm 1 m/s 632 mmHg 68%
    06:00 +13°C° 0 mm 1 m/s 633 mmHg 68%
    07:00 +15°C° 0 mm 1 m/s 633 mmHg 62%
    08:00 +16°C° 0 mm 2 m/s 633 mmHg 56%
    09:00 +18°C° 0 mm 3 m/s 634 mmHg 50%
    10:00 +18°C° 0 mm 3 m/s 634 mmHg 51%
    11:00 +19°C° 0 mm 4 m/s 634 mmHg 53%
    12:00 +19°C° 0 mm 4 m/s 635 mmHg 54%
    13:00 +19°C° 0.4 mm 3 m/s 634 mmHg 56%
    14:00 +19°C° 0.4 mm 3 m/s 634 mmHg 58%
    15:00 +20°C° 0.4 mm 2 m/s 634 mmHg 60%
    16:00 +21°C° 0.3 mm 1 m/s 634 mmHg 61%
    17:00 +21°C° 0.3 mm 1 m/s 634 mmHg 62%
    18:00 +21°C° 0.3 mm 1 m/s 634 mmHg 63%
    19:00 +19°C° 0.1 mm 1 m/s 634 mmHg 65%
    20:00 +16°C° 0.1 mm 2 m/s 634 mmHg 67%
    21:00 +15°C° 0.1 mm 2 m/s 633 mmHg 69%
    22:00 +14°C° 0 mm 2 m/s 633 mmHg 69%
    23:00 +14°C° 0 mm 2 m/s 633 mmHg 69%
    Mostrar mais